Weather History for KLFK - January, 2013

Change the Weather History Date:

Wednesday, January 9, 2013

  Actual Average Record
Temperature  
Mean Temperature 64 °F 49 °F  
Max Temperature 66 °F 59 °F 81 °F (1957)
Min Temperature 61 °F 38 °F 14 °F (2010)
Degree Days  
Heating Degree Days 1 17  
Month to date heating degree days 147 153  
Since 1 July heating degree days 764 931  
Cooling Degree Days 0 0  
Month to date cooling degree days 0 0  
Year to date cooling degree days 0 0  
Growing Degree Days 14 (Base 50)    
Moisture  
Dew Point 61 °F    
Average Humidity 92    
Maximum Humidity 97    
Minimum Humidity 87    
Precipitation  
Precipitation 1.03 in 0.13 in 3.07 in (2012)
Month to date precipitation 1.48 1.18  
Year to date precipitation 1.48 1.18  
Snow  
Snow 0.00 in - - ()
Month to date snowfall 0.0  
Since 1 July snowfall 0.0  
Snow Depth 0.00 in    
Sea Level Pressure  
Sea Level Pressure 30.00 in    
Wind  
Wind Speed 9 mph (ENE)    
Max Wind Speed 24 mph    
Max Gust Speed 33 mph    
Visibility 8 miles    
Events Rain    
T = Trace of Precipitation, MM = Missing Value Source: NWS Daily Summary

Daily Weather History Graph

Daily Weather History Graph

Search for Another Location

Airport or City:

Trip Planner

Search our weather history database for the weather conditions in past years. The results will help you decide how hot, cold, wet, or windy it might be!

Date:

Astronomy

Jan. 09, 2013 Rise Set
Actual Time 7:18 AM CST 5:34 PM CST
Civil Twilight 6:52 AM CST 6:00 PM CST
Nautical Twilight 6:22 AM CST 6:30 PM CST
Astronomical Twilight 5:53 AM CST 6:59 PM CST
Moon 4:58 AM CST (1/9) 3:36 PM CST (1/9)
Length of Visible Light 11h 08m
Length of Day
10h 15m
Waning Crescent, 6% of the Moon is Illuminated
Jan 9
Waning Crescent
Jan 11
New
Jan 18
First Quarter
Jan 26
Full
Feb 3
Last Quarter

Hourly Weather History & Observations

Time (CST) Temp. Dew Point Humidity Pressure Visibility Wind Dir Wind Speed Gust Speed Precip Events Conditions
12:31 AM 62.6 °F 59.0 °F 88% 29.99 in 10.0 mi East 9.2 mph - N/A   Overcast
12:43 AM 62.6 °F 59.0 °F 88% 30.00 in 10.0 mi East 5.8 mph - N/A   Overcast
12:53 AM 62.1 °F 59.0 °F 90% 30.00 in 10.0 mi East 9.2 mph - N/A   Overcast
1:17 AM 62.6 °F 59.0 °F 88% 29.98 in 10.0 mi East 9.2 mph - N/A   Overcast
1:53 AM 63.0 °F 59.0 °F 87% 29.99 in 10.0 mi ENE 3.5 mph - N/A   Overcast
2:53 AM 62.1 °F 59.0 °F 90% 29.99 in 10.0 mi NE 4.6 mph - N/A   Overcast
3:39 AM 62.6 °F 59.0 °F 88% 30.01 in 10.0 mi NE 5.8 mph - 0.02 in   Overcast
3:53 AM 62.1 °F 59.0 °F 90% 30.01 in 10.0 mi NE 4.6 mph - 0.02 in   Overcast
4:00 AM 62.6 °F 59.0 °F 88% 30.01 in 10.0 mi ENE 5.8 mph - N/A   Overcast
4:53 AM 62.1 °F 59.0 °F 90% 30.01 in 5.0 mi East 6.9 mph - 0.11 in Rain Rain
5:53 AM 62.1 °F 59.0 °F 90% 30.00 in 9.0 mi East 10.4 mph - 0.09 in Rain Light Rain
6:53 AM 63.0 °F 59.0 °F 87% 30.01 in 10.0 mi East 11.5 mph - 0.01 in   Overcast
7:20 AM 62.6 °F 59.0 °F 88% 30.02 in 10.0 mi ENE 9.2 mph - N/A   Overcast
7:34 AM 62.6 °F 59.0 °F 88% 30.03 in 10.0 mi ENE 9.2 mph - N/A   Overcast
7:53 AM 63.0 °F 59.0 °F 87% 30.02 in 10.0 mi ENE 11.5 mph - N/A   Overcast
8:53 AM 63.0 °F 60.1 °F 90% 30.05 in 10.0 mi East 10.4 mph - 0.00 in Rain Light Rain
9:53 AM 64.0 °F 60.1 °F 87% 30.07 in 10.0 mi East 12.7 mph - 0.00 in Rain Light Rain
10:53 AM 64.0 °F 61.0 °F 90% 30.04 in 10.0 mi ENE 11.5 mph 19.6 mph 0.01 in   Overcast
11:53 AM 64.9 °F 61.0 °F 87% 30.01 in 10.0 mi East 11.5 mph - N/A   Overcast
1:17 PM 66.2 °F 62.6 °F 88% 30.01 in 5.0 mi NE 4.6 mph - 0.02 in Rain Light Rain
1:28 PM 66.2 °F 62.6 °F 88% 30.02 in 5.0 mi NE 3.5 mph - 0.03 in Rain Light Rain
1:37 PM 66.2 °F 62.6 °F 88% 30.03 in 5.0 mi Calm Calm - 0.05 in Rain Rain
1:53 PM 66.0 °F 62.1 °F 87% 30.02 in 3.0 mi ENE 3.5 mph - 0.08 in Rain Rain
2:00 PM 66.2 °F 62.6 °F 88% 30.03 in 2.5 mi Calm Calm - 0.01 in Rain Rain
2:10 PM 66.2 °F 62.6 °F 88% 30.02 in 4.0 mi NE 4.6 mph - 0.03 in Rain Light Rain
2:24 PM 66.2 °F 62.6 °F 88% 30.02 in 4.0 mi NE 4.6 mph - 0.05 in Rain Rain
2:53 PM 64.9 °F 62.1 °F 90% 30.04 in 3.0 mi ENE 5.8 mph - 0.11 in Rain Rain
3:13 PM 64.4 °F 62.6 °F 94% 30.04 in 2.5 mi ENE 8.1 mph - 0.07 in Rain Rain
3:53 PM 64.9 °F 62.1 °F 90% 30.01 in 2.0 mi ENE 10.4 mph - 0.30 in Rain Heavy Rain
4:00 PM 64.4 °F 62.6 °F 94% 30.02 in 2.0 mi ENE 12.7 mph 18.4 mph 0.03 in Rain Heavy Rain
4:36 PM 64.4 °F 62.6 °F 94% 29.99 in 3.0 mi ENE 18.4 mph - 0.22 in Rain Heavy Rain
4:49 PM 64.4 °F 62.6 °F 94% 29.87 in 4.0 mi NE 20.7 mph 27.6 mph 0.25 in Rain Rain
4:53 PM 64.9 °F 62.1 °F 90% 29.90 in 4.0 mi ENE 19.6 mph 27.6 mph 0.26 in Rain Rain
5:05 PM 64.4 °F 62.6 °F 94% 29.93 in 10.0 mi ENE 18.4 mph 33.4 mph 0.00 in Rain Light Rain
5:53 PM 66.0 °F 62.1 °F 87% 29.99 in 10.0 mi East 10.4 mph - 0.01 in   Overcast
6:53 PM 66.0 °F 62.1 °F 87% 30.02 in 10.0 mi ESE 4.6 mph - 0.00 in   Overcast
7:16 PM 66.2 °F 62.6 °F 88% 30.02 in 10.0 mi Variable 5.8 mph - 0.00 in Rain Light Rain
7:23 PM 66.2 °F 62.6 °F 88% 30.03 in 10.0 mi East 4.6 mph - 0.00 in   Overcast
7:37 PM 64.4 °F 62.6 °F 94% 30.02 in 10.0 mi ENE 6.9 mph - 0.00 in   Overcast
7:53 PM 64.9 °F 61.0 °F 87% 29.97 in 10.0 mi ENE 12.7 mph - 0.00 in   Overcast
8:00 PM 64.4 °F 60.8 °F 88% 29.97 in 10.0 mi ENE 15.0 mph 19.6 mph N/A   Overcast
8:18 PM 64.4 °F 60.8 °F 88% 29.98 in 10.0 mi East 11.5 mph - N/A   Overcast
8:49 PM 64.4 °F 60.8 °F 88% 29.99 in 10.0 mi East 8.1 mph - N/A   Overcast
8:53 PM 64.9 °F 62.1 °F 90% 29.99 in 10.0 mi East 11.5 mph - N/A   Overcast
9:53 PM 64.9 °F 62.1 °F 90% 30.00 in 10.0 mi East 6.9 mph - N/A   Overcast
10:53 PM 64.9 °F 62.1 °F 90% 30.01 in 10.0 mi ESE 3.5 mph - N/A   Overcast
11:35 PM 64.4 °F 62.6 °F 94% 30.04 in 2.0 mi SSE 4.6 mph - 0.01 in Rain Light Rain